Simultaneous Nadir Overpasses (SNOs) Predictions

Prediction of SNOs between AQUA and NOAA-19 Satellite Orbit:

Table of predicted SNOs for the next 14.0 days since TLE Epoch: 12/10/2022
Index Date (AQUA) Time (AQUA) Lat,Lon (AQUA) SZA (AQUA ) Date (NOAA-19) Time (NOAA-19) Lat,Lon (NOAA-19) SZA (NOAA-19 ) Distance(km) Time Diff (sec)
1 12/10/2022 18:30:50 -77.00, 69.22 79.89 12/10/2022 18:30:01 -76.98, 69.18 79.90 2.73 49
2 12/10/2022 19:20:17 77.04,-123.27 100.16 12/10/2022 19:20:55 77.03,-123.33 100.15 1.72 38
3 12/13/2022 00:03:42 76.99, 166.04 100.29 12/13/2022 00:02:42 76.98, 166.08 100.29 2.15 60
4 12/13/2022 00:53:08 -77.03, -26.43 79.67 12/13/2022 00:53:46 -77.01, -26.53 79.69 3.02 38
5 12/15/2022 05:36:32 -76.96, -97.01 79.61 12/15/2022 05:35:33 -76.97, -97.08 79.58 2.34 59
6 12/15/2022 06:25:59 77.00, 70.46 100.45 12/15/2022 06:26:26 77.03, 70.46 100.48 3.33 27
7 12/17/2022 11:09:23 76.96, -0.21 100.51 12/17/2022 11:08:13 76.97, -0.17 100.53 1.93 70
8 12/17/2022 11:58:50 -77.03, 167.16 79.42 12/17/2022 11:59:18 -76.99, 167.15 79.45 4.09 28
9 12/19/2022 16:42:13 -76.96, 96.59 79.43 12/19/2022 16:41:05 -76.94, 96.55 79.43 2.26 68
10 12/19/2022 17:31:40 77.01, -95.96 100.64 12/19/2022 17:31:57 77.02, -95.84 100.64 3.20 17
11 12/21/2022 22:15:00 76.83,-166.11 100.45 12/21/2022 22:13:49 76.74,-167.41 100.45 34.56 71
12 12/21/2022 23:04:29 -76.99, 0.94 79.37 12/21/2022 23:04:49 -76.99, 0.90 79.36 0.97 20
13 12/24/2022 03:47:51 -76.92, -69.63 79.46 12/24/2022 03:46:38 -76.84, -70.12 79.49 15.03 73



Historial Predications of SNOs between AQUA and NOAA-19
